This demonstration page uses our WeatherBlox Daily Observations layout. Learn more.

Hourly Observations for July 11, 2018

Temp ( °F °C ) Dew Point ( °F °C ) Humidity (%) Winds ( mph kmh ) Pressure ( in mb ) Visibility ( mi km ) Precip ( " mm )
12:15 am 00:15 Clear 77 25 68 20 74 74 NNW 3 6 29.94 1014 10 16.09344 0 0
12:35 am 00:35 Clear 79 26 68 20 70 70 Calm 29.94 1014 10 16.09344 0 0
12:55 am 00:55 Clear 77 25 68 20 74 74 NNW 6 9 29.94 1014 10 16.09344 0 0
1:15 am 01:15 Clear 75 24 68 20 78 78 NW 5 7 29.94 1014 10 16.09344 0 0
1:35 am 01:35 Clear 77 25 68 20 74 74 NW 7 11 29.94 1014 10 16.09344 0 0
1:55 am 01:55 Clear 73 23 68 20 83 83 W 3 6 29.94 1014 10 16.09344 0 0
2:10 am 02:10 Partly Cloudy 75 24 68 20 78 78 W 5 7 29.94 1014 10 16.09344 0 0
2:35 am 02:35 Cloudy 77 25 68 20 74 74 Calm 29.94 1014 10 16.09344 0 0
2:55 am 02:55 Cloudy 75 24 68 20 78 78 Calm 29.94 1014 10 16.09344 0 0
3:15 am 03:15 Cloudy 73 23 70 21 89 89 WNW 6 9 29.94 1014 10 16.09344 0 0
3:35 am 03:35 Partly Cloudy 75 24 68 20 78 78 WNW 6 9 29.94 1014 10 16.09344 0 0
3:55 am 03:55 Clear 77 25 68 20 74 74 N 5 7 29.94 1014 10 16.09344 0 0
4:15 am 04:15 Clear 75 24 68 20 78 78 NNW 3 6 29.94 1014 10 16.09344 0 0
4:35 am 04:35 Partly Cloudy 75 24 68 20 78 78 NNW 3 6 29.94 1014 10 16.09344 0 0
4:55 am 04:55 Partly Cloudy 77 25 68 20 74 74 Calm 29.94 1014 10 16.09344 0 0
5:15 am 05:15 Partly Cloudy 77 25 68 20 74 74 Calm 29.94 1014 10 16.09344 0 0
5:35 am 05:35 Partly Cloudy 77 25 68 20 74 74 N 3 6 29.94 1014 10 16.09344 0 0
5:55 am 05:55 Sunny 75 24 68 20 78 78 N 3 6 29.94 1014 10 16.09344 0 0
6:15 am 06:15 Sunny 75 24 68 20 78 78 N 5 7 29.97 1015 10 16.09344 0 0
6:35 am 06:35 Sunny 75 24 70 21 83 83 NNW 5 7 29.97 1015 10 16.09344 0 0
6:55 am 06:55 Partly Cloudy 75 24 70 21 83 83 NNW 5 7 29.97 1015 10 16.09344 0 0
7:15 am 07:15 Partly Cloudy 77 25 70 21 79 79 N 3 6 29.97 1015 10 16.09344 0 0
7:35 am 07:35 Mostly Cloudy 79 26 70 21 74 74 N 6 9 30 1016 10 16.09344 0 0
7:55 am 07:55 Cloudy 79 26 70 21 74 74 N 7 11 30 1016 10 16.09344 0 0
8:15 am 08:15 Cloudy 79 26 70 21 74 74 N 7 11 30 1016 10 16.09344 0 0
8:35 am 08:35 Cloudy 79 26 68 20 70 70 N 7 11 30 1016 10 16.09344 0 0
8:55 am 08:55 Cloudy 81 27 68 20 66 66 N 5 7 30 1016 10 16.09344 0 0
9:15 am 09:15 Cloudy 81 27 68 20 66 66 N 7 11 30 1016 10 16.09344 0 0
9:35 am 09:35 Cloudy 81 27 66 19 62 62 N 9 15 30 1016 10 16.09344 0 0
9:55 am 09:55 Partly Cloudy 82 28 66 19 58 58 NNE 6 9 30 1016 10 16.09344 0 0
10:15 am 10:15 Partly Cloudy 82 28 66 19 58 58 N 6 9 30 1016 10 16.09344 0 0
10:35 am 10:35 Mostly Cloudy 84 29 64 18 51 51 NNE 7 11 30 1016 10 16.09344 0 0
10:55 am 10:55 Cloudy 82 28 64 18 55 55 NNE 9 15 30 1016 10 16.09344 0 0
11:15 am 11:15 Partly Cloudy 86 30 63 17 46 46 NE 9 15 30 1016 10 16.09344 0 0
11:35 am 11:35 Sunny 86 30 63 17 46 46 NNE 7 11 30 1016 10 16.09344 0 0
11:55 am 11:55 Sunny 86 30 61 16 43 43 NE 5 7 30 1016 10 16.09344 0 0
12:15 pm 12:15 Sunny 86 30 64 18 49 49 NE 5 7 30 1016 10 16.09344 0 0
12:35 pm 12:35 Sunny 86 30 66 19 52 52 NNE 5 7 30 1016 10 16.09344 0 0
12:55 pm 12:55 Sunny 88 31 66 19 49 49 NNE 7 11 29.97 1015 10 16.09344 0 0
1:15 pm 13:15 Partly Cloudy 88 31 64 18 46 46 N 9 15 29.97 1015 10 16.09344 0 0
1:35 pm 13:35 Partly Cloudy 88 31 63 17 43 43 NNW 13 20 29.97 1015 10 16.09344 0 0
1:55 pm 13:55 Partly Cloudy 88 31 63 17 43 43 N 8 13 29.97 1015 10 16.09344 0 0
2:15 pm 14:15 Partly Cloudy 90 32 63 17 41 41 NNE 7 11 29.97 1015 10 16.09344 0 0
2:35 pm 14:35 Mostly Cloudy 88 31 63 17 43 43 N 9 15 29.97 1015 10 16.09344 0 0
2:55 pm 14:55 Partly Cloudy 90 32 64 18 43 43 NNE 9 15 29.97 1015 10 16.09344 0 0
3:15 pm 15:15 Partly Cloudy 90 32 64 18 43 43 NNE 14 22 29.97 1015 10 16.09344 0 0
3:35 pm 15:35 Sunny 90 32 63 17 41 41 NNE 12 19 29.97 1015 10 16.09344 0 0
3:55 pm 15:55 Partly Cloudy 90 32 63 17 41 41 NNE 10 17 29.97 1015 10 16.09344 0 0
4:15 pm 16:15 Partly Cloudy 90 32 61 16 38 38 N 14 22 29.94 1014 10 16.09344 0 0
4:35 pm 16:35 Sunny 90 32 61 16 38 38 N 14 22 29.94 1014 10 16.09344 0 0
4:55 pm 16:55 Sunny 90 32 61 16 38 38 NNE 9 15 29.94 1014 10 16.09344 0 0
5:15 pm 17:15 Sunny 88 31 61 16 40 40 N 12 19 29.94 1014 10 16.09344 0 0
5:35 pm 17:35 Sunny 90 32 61 16 38 38 N 12 19 29.97 1015 10 16.09344 0 0
5:55 pm 17:55 Sunny 88 31 61 16 40 40 N 10 17 29.97 1015 10 16.09344 0 0
6:15 pm 18:15 Sunny 88 31 61 16 40 40 N 7 11 29.97 1015 10 16.09344 0 0
6:35 pm 18:35 Sunny 88 31 59 15 38 38 N 8 13 29.97 1015 10 16.09344 0 0
6:55 pm 18:55 Sunny 86 30 59 15 40 40 NNE 8 13 30 1016 10 16.09344 0 0
7:15 pm 19:15 Sunny 86 30 59 15 40 40 NNE 7 11 30 1016 10 16.09344 0 0
7:35 pm 19:35 Sunny 86 30 63 17 46 46 NE 8 13 30 1016 10 16.09344 0 0
7:55 pm 19:55 Sunny 84 29 63 17 48 48 NE 8 13 30 1016 10 16.09344 0 0
8:15 pm 20:15 Sunny 82 28 64 18 55 55 NE 7 11 30.03 1017 10 16.09344 0 0
8:35 pm 20:35 Sunny 82 28 64 18 55 55 NE 5 7 30.03 1017 10 16.09344 0 0
8:55 pm 20:55 Clear 81 27 64 18 58 58 NNE 3 6 30.03 1017 10 16.09344 0 0
9:15 pm 21:15 Clear 81 27 64 18 58 58 Calm 30.03 1017 10 16.09344 0 0
9:35 pm 21:35 Clear 77 25 64 18 65 65 Calm 30.06 1018 10 16.09344 0 0
9:55 pm 21:55 Clear 75 24 66 19 74 74 Calm 30.06 1018 10 16.09344 0 0
10:15 pm 22:15 Clear 77 25 64 18 65 65 N 3 6 30.06 1018 10 16.09344 0 0
10:35 pm 22:35 Clear 75 24 64 18 69 69 N 6 9 30.06 1018 10 16.09344 0 0
10:55 pm 22:55 Partly Cloudy 77 25 63 17 61 61 NNE 7 11 30.09 1019 10 16.09344 0 0
11:15 pm 23:15 Partly Cloudy 77 25 63 17 61 61 NNE 7 11 30.09 1019 10 16.09344 0 0
11:35 pm 23:35 Clear 77 25 63 17 61 61 NNE 3 6 30.09 1019 10 16.09344 0 0
11:55 pm 23:55 Clear 77 25 63 17 61 61 Calm 30.09 1019 10 16.09344 0 0

Powered by AerisWeather